sat.trackr.live / text

‹ back to catalog

TWILIGHT-1 OBJECT Z

NORAD 67386 · 2026-004Z

PAYLOAD ACTIVE UNKNOWN

§ Identity

Operator
Country
TBD
Launch date
2026-01-11
Launch site
AFWTR
Launch vehicle
Mass (kg)
RCS (m²)

External: N2YO · Heavens-Above · Gunter

§ Orbital elements

Epoch: 2026-05-24T23:36:01.597248Z

Period
96.73 min
Inclination
97.7997°
Eccentricity
0.0002602
Mean motion
14.88741190 rev/d
Perigee alt
600.1 km
Apogee alt
603.7 km
Semi-major
6,980.0 km
B*
1.5943e-4
RAAN
144.0707°
Arg perigee
165.0126°
Mean anomaly
195.1168°
Rev number
1,984

§ Raw data

TWILIGHT-1 OBJECT Z1 67386U 26004Z   26144.98335182  .00001436  00000+0  15943-3 0  99962 67386  97.7997 144.0707 0002602 165.0126 195.1168 14.88741190 19840

JSON: /api/v1/satellites/67386 · /tle

For live sub-satellite position, see the globe view (requires WebGL).

§ Visibility from observer

Set your observer location to see the next 7 days of passes ≥ 10°. The values pass through the URL so the page stays shareable.

No JS? Fill the form by hand. The geolocation button needs JavaScript.